Location: Falkner
(32.6954°N, 86.0502°W)
Time: 15:14:59
(UTC+00:00)

CZ-4B R/B - Pass Details

Date: 29 October 2020
Orbit: 808 x 882 km, 99.1° (Epoch: 03 December)

Event Time Altitude Azimuth Distance (km) Brightness Sun altitude
Rises 23:24:33 0° 172° (S) 3,458 6.4 -6.7°
Reaches altitude 10° 23:26:58 10° 174° (S) 2,517 5.8 -7.2°
Maximum altitude 23:32:32 69° 257° (WSW) 927 3.7 -8.4°
Drops below altitude 10° 23:38:03 10° 341° (NNW) 2,490 5.8 -9.5°
Sets 23:40:26 0° 344° (NNW) 3,418 6.4 -10.0°
